Sitka, Alaska, United States (99835)
Lat: 57.05N, Lon: 135.33W
Wx Zone: AKZ023
Local Info
Past Weather Observations for Wednesday, June 24, 2015

NOTE: This archive is for the closest National Weather Service station to Sitka. Information may differ from the station used for current weather conditions.

Click here for Long-term Archive

Time Weather Temperature Dewpoint Humidity Pressure Winds Precip Visibility
23:53
Overcast
57°F / 14°C 55°F / 13°C 94% 29.92 in
(1013 mb)
W 4.6 mph
(W 7 kph)
- 10SM
22:53
Overcast
57°F / 14°C 54°F / 12°C 88% 29.92 in
(1013 mb)
NW 4.6 mph
(NW 7 kph)
- 10SM
21:53
Overcast
57°F / 14°C 54°F / 12°C 88% 29.92 in
(1013 mb)
NNW 5.8 mph
(NNW 9 kph)
0.00 in
(0.00 mm)
10SM
20:53
Overcast
57°F / 14°C 54°F / 12°C 88% 29.92 in
(1013 mb)
NNW 6.9 mph
(NNW 11 kph)
0.00 in
(0.00 mm)
10SM
19:53
Overcast
57°F / 14°C 55°F / 13°C 94% 29.89 in
(1012 mb)
NNW 5.8 mph
(NNW 9 kph)
0.02 in
(0.51 mm)
10SM
18:53
Overcast
Light Rain
61°F / 16°C 54°F / 12°C 77% 29.89 in
(1012 mb)
Calm 0.01 in
(0.25 mm)
10SM
17:53
Overcast
63°F / 17°C 54°F / 12°C 73% 29.89 in
(1012 mb)
E 6.9 mph
(E 11 kph)
0.00 in
(0.00 mm)
10SM
16:53
Overcast
64°F / 18°C 52°F / 11°C 64% 29.89 in
(1012 mb)
ESE 12.7 mph
(ESE 20 kph)
- 10SM
15:53
Overcast
63°F / 17°C 52°F / 11°C 68% 29.89 in
(1012 mb)
E 10.4 mph
(E 17 kph)
- 10SM
14:53
Overcast
66°F / 19°C 50°F / 10°C 56% 29.89 in
(1012 mb)
SE 9.2 mph
(SE 15 kph)
- 10SM
13:53
Overcast
66°F / 19°C 52°F / 11°C 60% 29.89 in
(1012 mb)
ESE 11.5 mph
(ESE 19 kph)
0.00 in
(0.00 mm)
10SM
12:53
Overcast
Light Rain
63°F / 17°C 52°F / 11°C 68% 29.89 in
(1012 mb)
ESE 12.7 mph
(ESE 20 kph)
0.01 in
(0.25 mm)
10SM
11:53
Overcast
63°F / 17°C 52°F / 11°C 68% 29.89 in
(1012 mb)
E 11.5 mph
(E 19 kph)
0.00 in
(0.00 mm)
10SM
10:53
Overcast
Light Rain
63°F / 17°C 52°F / 11°C 68% 29.89 in
(1012 mb)
SE 9.2 mph
(SE 15 kph)
0.01 in
(0.25 mm)
10SM
09:53
Overcast
64°F / 18°C 48°F / 9°C 56% 29.89 in
(1012 mb)
SE 15 mph
(SE 24 kph)
0.00 in
(0.00 mm)
10SM
08:53
Overcast
Light Rain
64°F / 18°C 46°F / 8°C 52% 29.89 in
(1012 mb)
SE 9.2 mph
(SE 15 kph)
0.00 in
(0.00 mm)
10SM
07:53
Mostly Cloudy
64°F / 18°C 46°F / 8°C 52% 29.89 in
(1012 mb)
E 10.4 mph
(E 17 kph)
- 10SM
06:53
Mostly Cloudy
64°F / 18°C 46°F / 8°C 52% 29.89 in
(1012 mb)
ESE 11.5 mph
(ESE 19 kph)
- 10SM
05:53
Mostly Cloudy
64°F / 18°C 46°F / 8°C 52% 29.89 in
(1012 mb)
ESE 8.1 mph
(ESE 13 kph)
- 10SM
04:53
Mostly Cloudy
55°F / 13°C 48°F / 9°C 77% 29.89 in
(1012 mb)
E 8.1 mph
(E 13 kph)
- 10SM
03:53
Partly Cloudy
54°F / 12°C 50°F / 10°C 88% 29.89 in
(1012 mb)
NE 3.5 mph
(NE 6 kph)
- 10SM
02:53
Partly Cloudy
54°F / 12°C 48°F / 9°C 82% 29.89 in
(1012 mb)
NE 3.5 mph
(NE 6 kph)
- 10SM
01:53
Partly Cloudy
54°F / 12°C 48°F / 9°C 82% 29.92 in
(1013 mb)
Calm - 10SM
00:53
Clear
54°F / 12°C 48°F / 9°C 82% 29.92 in
(1013 mb)
ENE 3.5 mph
(ENE 6 kph)
- 10SM
Time Weather Temperature Dewpoint Humidity Pressure Winds Precip Visibility


Weather for websites

WeatherForYou.com, LLC is not responsible for any damages or problems caused by this service. Current weather conditions are obtained from the closest station including government and personal stations which may have varying degrees of accuracy. Weather forecasts are derived from the NOAA NDFD. Like all things, this site belongs to Jesus Christ... He just trusts us to maintain it. If you have any questions or comments email webmaster@weatherforyou.com

Copyright © 2015, WeatherForYou.com LLC. All rights reserved.